{"data":{"norad_id":61927,"intl_designator":"2024-207R","name":"STARLINK-32622","alt_names":[],"object_type":"PAYLOAD","status":"ACTIVE","operator":null,"country":"US","launch_date":"2024-11-11","launch_site_code":"AFETR","launch_vehicle":null,"mission":null,"orbit_class":"UNKNOWN","rcs_meters":null,"size_class":null,"mass_kg":null,"dimensions":null,"purposes":["comms"],"wikipedia_slug":null,"has_3d_model":false,"image_url":null,"decayed_at":null,"tle_current":{"epoch":"2026-05-24T21:52:06.382272Z","epoch_age_seconds":93306,"freshness":"FRESH","line1":"1 61927U 24207R   26144.91118498  .00014086  00000+0  52030-3 0  9999","line2":"2 61927  43.0017 210.8984 0002831 265.1153  94.9376 15.27587048 86381","mean_motion":15.27587048,"eccentricity":0.0002831,"inclination_deg":43.0017,"raan_deg":210.8984,"arg_perigee_deg":265.1153,"mean_anomaly_deg":94.9376,"bstar":0.0005203,"rev_number":8638,"period_min":94.266313784561,"perigee_km":481.08559606409,"apogee_km":484.97038768249,"semimajor_km":6861.1649918733,"source":"CELESTRAK","updated_at":"2026-05-25T13:38:19.483845Z"}}}